GFSSGP_925_spd_318.txt.gz
Wind_Speed
13 12 10 6 5 5 9 5 1 8 9 4 16 5 9 1 4 2 14 12 21 21 18 16 18 18 18 19 19 20 21 21 23 22 20 21 21 19 20 21 22 21 21 21 21 21 22 21 23
15 13 5 2 6 9 10 5 9 8 10 14 10 8 7 4 3 12 14 20 21 20 19 17 19 20 20 20 20 20 21 22 23 22 20 21 21 19 20 21 22 21 22 23 23 21 21 21 21
15 7 5 4 7 11 7 8 9 9 14 16 8 1 3 6 9 18 17 23 22 19 19 18 20 20 20 20 20 20 20 21 21 20 20 20 20 19 19 20 21 21 22 22 21 20 21 20 20
10 5 2 7 14 12 7 6 10 15 6 9 8 9 6 4 20 12 25 23 23 20 19 20 21 21 21 21 20 20 20 20 20 19 19 19 19 19 19 21 21 21 20 20 19 21 21 21 21
6 4 7 10 13 5 7 5 16 18 14 14 9 7 6 14 11 26 25 23 23 21 20 20 21 21 21 22 20 19 20 19 19 19 19 18 19 19 19 19 19 19 18 18 19 19 19 19 19
6 4 10 14 16 9 4 10 14 12 12 15 9 10 7 12 20 25 24 22 22 22 21 20 19 20 22 20 19 19 20 19 18 18 18 18 18 18 18 17 17 17 17 17 17 17 17 16 16
8 9 14 17 14 11 9 12 16 15 14 13 16 9 8 14 23 23 23 23 22 21 21 20 19 19 19 19 19 19 19 18 18 17 17 17 18 18 17 16 16 16 16 16 15 15 15 13 14
4 6 13 13 15 13 9 14 12 12 12 12 9 7 10 17 25 24 22 23 22 21 20 20 20 19 20 18 18 18 17 17 16 17 17 16 17 17 17 16 16 15 15 14 14 14 13 12 12
1 8 15 16 17 14 12 10 8 2 13 4 8 8 20 30 28 25 23 22 23 21 20 20 20 19 20 19 18 17 16 15 15 15 17 15 13 13 14 15 14 14 14 13 12 12 12 11 10
9 13 19 13 10 12 17 15 17 10 14 6 9 8 31 30 28 27 24 23 24 23 22 21 20 21 20 20 16 16 14 12 11 11 11 11 11 12 13 14 12 11 11 11 10 10 9 9 6
11 14 7 10 8 9 18 14 12 11 14 14 19 22 24 28 28 26 24 23 24 24 22 21 20 20 18 21 15 14 12 12 11 10 10 10 11 10 9 9 8 8 9 8 7 7 7 7 6
8 10 9 8 8 10 17 15 12 17 3 13 20 24 26 22 23 28 26 25 25 23 21 21 20 19 17 17 15 13 13 12 10 9 10 10 9 9 8 7 8 7 6 6 6 5 5 6 6
6 10 6 5 11 9 13 16 15 16 1 13 21 24 24 21 26 26 25 25 23 22 22 21 20 19 18 17 15 14 13 11 10 10 10 9 9 8 7 8 7 6 5 5 5 6 5 5 6
11 7 6 7 8 8 16 9 10 10 8 16 23 26 24 24 28 28 29 28 25 23 22 21 21 19 18 17 16 15 14 12 10 9 10 9 8 7 8 7 6 5 5 5 5 5 5 5 4
8 8 6 8 8 6 13 6 13 11 14 18 21 22 22 22 28 28 29 28 27 25 23 25 21 19 19 17 17 15 14 12 10 9 10 8 8 8 8 6 5 5 5 5 4 4 4 4 3
8 6 14 12 9 4 12 18 13 13 17 18 20 21 20 22 26 26 28 26 24 23 23 24 24 21 20 18 17 16 15 13 11 10 9 8 8 9 7 6 5 5 4 4 4 3 3 3 3
12 15 18 10 7 7 11 12 11 14 16 18 19 20 19 20 23 27 27 26 25 23 23 26 23 22 21 19 18 17 18 14 13 10 9 10 9 9 6 6 5 4 4 4 3 4 3 3 4
24 17 19 16 11 9 11 9 11 14 16 18 18 17 19 20 23 27 27 26 24 22 22 24 23 23 22 19 21 18 18 16 14 11 10 12 9 9 7 6 5 4 3 3 3 3 4 4 6
15 16 19 8 7 11 14 10 14 14 14 17 17 17 18 19 23 24 25 25 24 23 23 25 25 24 23 23 24 23 22 19 16 11 12 12 10 9 9 7 6 4 3 3 3 3 4 5 5
15 18 16 4 4 9 12 11 10 14 18 19 19 18 18 17 19 23 25 26 26 25 24 25 26 26 23 25 25 21 22 22 17 16 13 11 11 11 9 8 6 5 3 3 2 2 3 4 2
15 21 13 11 7 2 11 13 7 10 8 13 15 16 18 20 21 19 25 27 26 26 26 26 27 26 23 29 26 22 20 17 17 17 16 12 13 12 10 9 6 5 4 3 3 3 4 4 4
8 6 12 15 15 10 8 11 15 12 16 14 15 16 18 20 19 19 25 27 28 28 27 27 27 27 24 26 24 23 21 18 14 20 20 14 13 12 12 9 7 6 5 4 3 4 4 4 4
4 11 11 10 13 6 9 6 19 11 15 18 19 19 20 20 21 22 26 32 33 31 29 29 29 29 27 26 25 25 24 21 18 20 21 17 14 15 16 12 11 8 6 5 4 4 4 4 4
16 11 8 5 2 6 14 15 17 13 20 18 19 19 21 20 21 21 30 29 30 29 29 30 31 30 29 28 28 27 26 21 20 17 22 19 16 15 17 15 13 10 8 6 5 6 6 6 6
9 18 5 4 5 6 4 11 13 16 21 23 21 22 22 21 20 21 21 27 29 31 31 30 31 31 30 30 30 30 33 28 25 24 21 24 20 16 19 18 15 13 11 9 8 8 8 7 7
22 19 8 10 9 7 4 9 6 17 8 14 12 17 16 18 19 20 21 28 29 31 33 33 33 33 32 32 31 39 37 33 30 27 22 23 23 21 21 20 16 15 14 12 11 10 9 8 8
15 15 4 6 2 6 7 5 9 12 8 9 12 11 13 17 19 22 22 29 30 31 33 35 34 34 33 33 30 35 38 35 32 31 24 22 21 21 24 23 21 18 17 14 13 12 12 11 9
17 13 7 2 8 7 5 10 10 9 16 11 12 15 16 16 16 16 17 26 28 31 32 33 34 35 34 33 32 31 30 33 31 32 25 22 22 24 26 25 23 22 19 18 15 14 12 10 9
8 12 7 6 2 5 5 5 8 16 13 18 17 17 15 12 12 14 16 25 26 25 28 29 31 32 33 32 33 32 30 28 28 27 26 25 24 26 27 26 26 25 23 19 16 14 13 11 10
16 19 17 9 9 0 2 2 1 5 1 5 9 4 3 5 6 9 11 17 21 25 27 29 29 31 32 33 32 32 31 29 29 28 27 26 27 29 31 31 29 27 24 20 18 16 14 13 12

GFSSGP_925_spd_321.txt.gz
Wind_Speed
13 12 11 8 6 7 15 11 6 5 7 3 11 4 7 6 4 3 19 18 23 21 18 16 18 17 18 18 19 20 21 21 21 20 20 20 20 20 20 20 20 21 21 20 21 21 22 22 22
13 12 9 6 8 12 12 9 7 9 10 13 9 5 6 8 9 15 15 22 22 21 19 17 18 19 19 19 20 21 22 22 21 21 20 19 20 20 21 22 22 23 22 21 21 21 21 21 21
13 13 6 5 10 15 10 10 8 10 13 14 6 3 3 5 12 19 22 23 22 21 21 19 20 20 20 20 21 21 22 22 21 20 19 19 20 21 20 21 21 22 22 21 20 20 19 20 19
14 7 5 10 17 18 13 6 14 14 10 11 12 10 7 2 19 17 25 23 23 21 19 20 22 22 21 20 21 21 22 21 19 20 20 19 18 20 20 21 21 20 20 20 20 19 20 19 20
12 6 9 14 20 15 9 2 13 16 13 15 13 9 10 13 15 27 24 23 22 21 20 20 22 23 22 21 20 20 20 19 18 19 19 19 19 19 19 20 19 19 19 18 18 19 19 18 18
8 9 11 16 20 15 7 9 13 15 14 13 10 12 8 8 24 24 23 23 23 24 22 21 22 23 22 20 19 19 19 19 19 18 19 19 18 18 17 17 16 17 17 17 17 17 16 16 16
15 11 17 18 18 16 13 10 14 14 13 15 16 11 10 11 24 23 23 23 23 23 22 20 20 21 19 20 19 19 18 18 17 17 18 18 18 17 16 16 16 16 16 16 15 14 14 14 15
10 12 21 19 16 18 14 12 13 12 13 13 14 7 10 20 23 23 22 24 23 22 22 20 20 19 20 19 19 18 18 16 16 14 15 17 17 16 15 15 15 14 15 14 14 12 12 13 12
7 9 16 24 19 16 13 14 11 4 11 9 7 8 24 32 27 25 23 21 23 22 21 22 21 21 19 19 18 17 15 14 14 15 17 14 12 12 11 14 14 13 13 13 13 12 11 10 11
11 13 20 19 16 16 15 15 16 12 14 9 8 12 32 31 27 23 24 24 24 23 23 22 22 21 19 18 17 15 14 12 11 11 9 9 10 10 11 13 11 11 11 11 11 11 10 8 6
14 16 17 16 14 14 17 16 16 17 16 17 17 24 24 27 26 22 21 25 23 24 22 22 22 21 19 17 18 15 12 11 10 9 9 9 10 9 8 8 7 7 8 6 6 6 6 7 6
12 18 17 8 7 8 16 15 16 17 11 15 17 24 23 20 19 23 23 24 24 24 22 24 23 22 20 14 16 13 12 10 9 8 9 9 7 7 6 6 6 5 5 5 5 5 6 7 7
13 18 13 4 8 13 13 16 16 17 5 12 20 23 23 18 22 25 24 25 23 23 23 24 23 22 22 14 13 14 12 10 9 9 8 7 7 6 6 6 5 5 4 4 5 5 5 6 6
14 9 17 9 11 8 14 11 14 15 10 18 21 22 23 20 26 27 26 24 22 24 22 22 22 21 20 18 15 13 12 10 9 8 9 8 7 6 7 6 5 5 5 4 5 5 4 5 5
13 11 9 11 11 7 14 10 13 17 15 20 21 21 22 22 28 28 29 26 22 21 24 20 21 20 18 16 15 13 12 10 9 8 9 8 7 7 7 5 5 4 4 5 4 4 5 4 4
10 15 13 15 12 5 15 17 18 16 18 20 21 20 21 23 27 27 28 28 25 21 22 22 23 22 19 17 15 13 13 10 9 9 8 8 7 7 6 6 5 4 4 4 4 3 4 4 4
13 15 22 19 14 6 14 16 19 16 17 19 19 20 19 21 23 26 28 28 27 24 24 23 24 19 20 18 16 15 14 11 9 9 8 8 8 7 6 5 5 4 4 3 3 3 3 3 4
25 20 23 20 14 10 15 16 18 17 18 19 20 19 19 19 21 25 28 27 26 26 23 24 24 20 20 18 17 15 14 11 10 8 8 9 8 7 5 5 5 4 3 3 3 3 4 3 5
17 20 22 19 13 14 16 12 16 18 17 18 19 19 19 19 21 25 25 25 26 25 25 24 24 23 22 19 17 15 16 16 13 9 10 10 8 7 7 6 5 4 3 3 3 3 4 4 6
16 24 18 5 7 13 17 17 12 16 20 20 21 20 19 18 19 23 25 26 26 27 27 26 26 25 24 20 19 17 20 19 18 11 12 12 9 9 9 7 6 4 3 3 3 4 3 4 4
15 23 17 12 6 12 14 15 12 14 14 16 17 17 18 21 21 21 24 27 26 26 26 25 26 25 25 20 20 19 20 19 16 16 15 15 11 11 9 8 6 5 4 3 3 3 5 5 3
16 17 14 13 14 11 16 12 17 15 16 16 17 18 19 20 19 20 24 27 27 27 25 25 25 26 27 24 22 25 21 15 15 18 18 17 13 12 10 11 8 6 5 4 3 3 3 4 6
10 7 12 11 12 11 12 9 18 19 16 17 19 18 20 21 22 22 22 28 29 28 27 27 26 27 26 25 25 26 21 20 18 18 19 21 16 14 13 13 10 8 6 5 4 4 4 4 5
11 16 11 4 6 5 15 15 18 21 20 20 21 21 19 20 21 20 28 29 28 29 27 28 28 30 29 28 28 27 25 22 21 19 18 22 20 17 14 15 11 9 8 7 6 6 6 6 6
12 14 5 4 4 7 17 13 15 17 20 21 21 21 21 19 20 19 20 24 29 31 32 31 31 31 31 30 29 29 27 26 22 22 20 20 23 20 17 16 14 12 11 9 8 8 8 7 8
21 17 9 9 10 11 1 10 10 19 8 18 16 18 17 17 16 19 20 26 28 31 33 32 32 31 32 32 31 30 29 26 26 25 23 22 22 24 20 21 17 15 14 12 10 10 9 9 9
15 17 15 2 1 11 10 8 5 10 5 6 12 9 18 19 18 18 18 24 27 29 33 34 32 32 33 33 31 31 30 29 29 26 27 26 24 21 22 22 20 19 17 15 12 11 11 10 9
14 15 5 3 5 8 10 17 9 17 15 11 11 11 11 12 15 14 15 22 24 26 29 31 33 34 33 33 32 31 30 30 31 32 30 28 24 22 24 24 21 21 20 18 16 14 13 12 10
8 14 11 11 4 3 4 6 10 12 14 15 14 13 12 13 11 10 11 18 23 24 28 30 31 31 33 33 33 33 31 31 30 35 33 30 25 25 26 26 25 23 22 22 20 16 16 14 13
17 19 20 10 13 2 2 1 5 4 4 3 7 4 2 2 7 7 8 17 21 25 26 29 29 31 33 34 33 34 32 31 30 31 33 30 28 27 28 27 26 25 24 24 23 20 18 17 17

GFSSGP_925_spd_327.txt.gz
Wind_Speed
12 12 9 2 3 4 3 8 4 3 3 2 4 15 12 3 3 6 21 24 29 26 23 21 21 22 23 24 25 25 24 22 21 22 22 21 22 23 23 24 25 24 25 24 25 25 26 24 23
17 12 3 1 4 2 5 7 8 10 7 10 12 7 10 5 4 15 17 27 28 26 24 23 24 25 25 26 24 23 24 21 21 21 21 23 23 24 24 25 25 25 24 25 24 24 24 26 28
19 13 3 4 4 6 4 4 4 3 7 7 6 8 5 4 6 6 33 29 28 25 25 25 25 25 24 26 24 24 25 23 23 22 23 24 24 24 24 24 24 23 23 23 23 24 25 24 25
12 3 3 3 9 7 4 0 9 9 5 10 10 9 5 3 3 21 33 34 28 27 26 25 26 26 27 26 27 24 23 22 23 23 23 24 24 23 24 23 23 23 23 22 24 23 23 23 24
4 3 2 4 7 4 7 5 9 6 7 8 5 4 6 9 26 36 34 32 30 29 26 25 26 27 27 28 27 25 22 22 22 22 23 23 23 22 23 23 23 22 23 22 22 21 21 21 24
2 3 4 5 6 8 2 9 11 6 11 10 14 9 4 24 30 32 30 30 30 30 27 26 26 26 26 26 26 24 22 21 20 20 23 22 21 21 21 21 21 20 20 20 20 20 19 19 23
6 4 6 6 5 7 6 4 11 10 9 5 14 6 5 16 29 31 29 30 31 30 29 28 28 27 26 25 23 22 21 22 20 20 21 21 20 19 19 18 19 19 18 19 19 19 20 20 22
4 4 8 7 7 9 6 8 10 13 5 11 12 8 11 18 29 29 29 31 31 29 28 27 27 26 24 23 21 21 20 20 19 18 18 18 18 18 19 19 18 18 17 17 18 18 18 19 18
1 3 8 9 9 10 6 7 4 8 17 2 5 8 21 35 33 33 32 31 31 28 29 28 27 25 24 23 22 19 18 18 19 21 20 19 17 17 18 17 16 16 16 17 17 18 18 16 15
7 4 8 6 6 3 7 10 10 11 8 6 8 19 26 34 31 27 25 25 26 28 29 27 26 25 25 23 21 20 18 20 22 20 17 13 15 17 17 16 16 16 16 16 13 11 10 13 13
8 7 4 8 9 3 5 7 5 19 5 12 24 26 21 27 24 26 28 28 29 29 28 25 25 25 24 23 21 18 20 21 19 15 16 12 16 16 16 16 16 15 14 12 10 11 13 13 12
8 6 11 2 4 4 6 4 6 13 7 15 28 25 22 18 19 23 27 28 32 32 31 27 25 25 24 23 20 21 19 17 17 16 12 15 15 15 14 12 10 11 9 10 9 12 11 12 12
4 10 6 2 6 2 1 6 7 7 20 20 20 18 19 18 17 21 27 30 31 33 34 30 27 26 26 23 18 18 17 17 16 14 15 13 10 13 13 11 10 9 10 10 11 12 12 13 12
8 10 7 5 4 2 3 5 7 5 21 22 23 18 17 19 22 23 25 25 30 32 33 30 26 25 26 23 21 19 19 18 15 15 13 13 12 14 13 14 13 12 11 10 10 10 11 12 12
8 5 3 4 5 4 5 5 7 11 20 22 20 19 18 20 25 25 26 26 34 32 30 31 28 25 27 24 21 19 22 17 16 15 13 13 13 13 12 10 9 9 8 8 9 11 11 11 11
9 6 8 5 8 2 5 5 5 20 22 19 19 17 18 17 21 27 24 26 35 32 31 28 29 28 21 22 20 18 18 16 15 17 14 12 13 13 12 11 8 11 9 9 10 10 11 12 12
5 9 6 4 7 5 4 4 5 17 21 17 17 17 16 17 20 27 23 26 31 35 33 32 32 28 25 23 20 19 18 15 15 17 14 14 14 12 13 9 10 10 10 9 9 10 10 12 12
11 12 12 9 7 5 4 5 7 14 18 19 17 15 16 18 18 27 25 26 28 34 35 33 31 30 28 24 21 19 18 15 15 17 16 14 14 13 11 8 11 9 10 10 9 10 11 12 14
12 8 8 4 6 6 7 4 8 10 13 14 14 15 20 18 22 27 31 30 30 32 33 36 32 31 30 27 25 23 23 19 17 17 15 16 15 12 11 12 10 8 9 9 8 10 13 15 15
11 11 4 4 8 6 7 6 7 8 14 20 20 17 17 17 17 22 30 32 35 34 35 33 31 32 31 31 29 27 26 24 20 18 17 15 15 15 13 11 11 9 11 10 10 10 13 14 15
9 16 8 9 5 5 7 1 5 5 5 11 14 15 15 19 20 16 28 32 32 34 39 39 36 33 32 30 31 27 27 24 20 19 20 17 15 14 14 12 11 11 10 10 10 11 11 13 13
9 9 11 14 6 6 4 4 6 8 8 10 15 18 18 19 17 16 25 30 34 35 38 37 38 38 34 30 34 33 30 26 25 25 22 18 17 16 16 14 13 12 11 10 10 11 12 11 13
4 14 14 8 7 6 3 5 5 10 9 8 10 19 17 19 18 17 22 30 34 36 38 40 36 37 38 31 38 36 34 32 29 27 22 21 21 21 18 16 15 13 13 11 11 11 13 11 11
1 10 8 5 5 1 5 5 4 12 14 8 5 13 17 15 15 13 20 28 28 33 34 40 38 39 40 37 41 41 36 33 30 29 27 26 23 22 22 19 18 15 14 13 12 12 13 13 13
12 10 3 3 2 5 5 4 6 8 10 16 12 11 15 17 15 13 13 20 26 34 36 38 38 39 40 41 43 43 37 34 35 33 31 29 29 28 26 23 21 18 16 14 13 13 13 14 14
10 5 5 6 5 4 5 5 5 9 8 9 19 18 17 16 14 12 13 23 26 32 36 36 36 35 39 42 42 42 37 35 37 34 33 32 33 32 29 25 22 21 18 17 15 14 15 15 15
7 3 5 6 2 4 3 4 4 5 5 7 12 7 8 14 15 18 18 28 29 30 34 36 35 33 36 40 41 42 39 38 39 36 34 35 34 35 33 29 25 24 22 20 19 18 17 17 16
2 2 2 3 5 5 2 4 4 4 6 6 7 10 9 9 10 10 13 18 25 26 27 31 32 33 36 36 39 42 42 40 40 37 36 38 33 35 36 33 30 28 27 25 23 22 20 20 19
3 2 2 2 4 4 4 3 10 7 6 5 4 6 4 2 3 6 8 20 26 27 29 32 34 35 34 36 38 37 39 41 41 42 39 39 36 35 39 38 34 32 30 28 27 26 25 23 22
3 4 5 4 2 1 4 0 8 10 15 15 14 14 15 16 14 14 18 18 3 17 29 32 31 32 34 37 37 39 39 38 42 44 44 42 42 40 39 40 40 38 35 33 33 31 29 28 27

GFSSGP_925_spd_330.txt.gz
Wind_Speed
10 13 13 4 4 4 3 6 3 1 2 5 5 7 8 3 3 4 16 17 29 26 21 21 21 22 22 23 23 24 24 23 23 23 23 23 22 22 22 23 24 25 24 26 26 25 23 23 25
15 14 4 3 4 3 5 4 7 5 7 6 10 5 6 3 4 10 14 29 29 26 24 23 23 24 25 25 24 25 26 24 21 22 23 23 23 23 24 24 24 24 24 25 25 24 24 24 25
18 8 3 5 4 6 3 6 10 4 9 2 6 5 5 5 9 9 23 30 30 26 25 24 26 27 27 27 24 26 24 23 23 20 22 24 24 23 23 23 24 24 23 24 24 24 22 24 23
12 2 3 4 8 4 6 4 7 8 4 6 9 8 5 3 5 17 33 32 31 28 27 26 27 26 25 24 23 23 26 29 26 23 24 24 24 23 23 23 23 23 24 23 25 24 20 23 22
4 3 3 4 6 4 6 1 3 6 4 4 3 4 4 5 24 34 33 32 32 29 27 26 26 26 24 27 23 24 27 27 26 25 25 24 23 22 23 23 22 23 24 22 23 23 23 24 21
3 3 4 5 6 5 4 7 7 4 4 7 11 7 3 24 31 33 33 33 31 30 27 26 27 27 26 26 24 25 26 26 25 24 24 23 23 21 22 21 21 21 21 21 21 23 24 24 20
6 4 6 7 5 3 7 8 7 9 8 3 10 6 7 16 32 32 34 34 32 30 29 28 28 27 26 25 23 23 23 24 25 24 22 22 22 22 22 20 19 20 20 21 21 22 24 21 19
4 4 6 7 7 8 7 8 8 14 3 6 7 7 11 15 32 31 34 34 31 30 30 30 29 28 25 23 22 22 22 22 22 22 21 21 21 21 21 18 18 20 20 20 21 21 19 18 18
5 4 6 10 10 9 5 6 3 3 14 1 2 5 23 34 36 34 29 30 31 30 29 29 28 26 25 23 22 20 19 18 18 19 18 19 20 20 19 18 18 18 19 19 18 19 18 16 16
5 5 9 5 7 5 5 7 12 8 5 4 10 18 27 33 31 29 24 24 27 30 29 28 27 28 27 25 20 19 18 19 21 21 18 18 19 19 19 18 17 17 17 16 15 14 17 17 17
7 7 5 5 5 6 6 4 3 21 4 16 24 23 20 28 25 26 26 27 29 33 30 28 27 25 24 21 20 19 21 23 20 17 16 18 18 18 18 18 17 17 14 13 13 13 12 13 15
10 4 6 4 6 5 5 8 4 20 10 17 30 29 21 20 21 26 27 27 30 32 30 28 26 24 22 22 20 19 21 19 15 16 14 18 19 18 18 16 15 13 12 11 11 13 13 13 13
5 9 3 1 3 5 8 7 6 3 13 18 22 22 20 16 21 25 29 30 30 33 31 29 26 24 24 21 19 23 19 16 16 14 16 16 17 16 14 12 12 11 11 11 13 13 13 14 15
7 11 4 5 6 2 6 5 4 2 18 20 23 21 18 16 23 25 28 29 30 34 34 30 26 25 25 23 22 19 19 18 16 16 15 12 12 14 13 12 11 12 11 12 13 12 13 15 14
7 13 4 2 3 3 7 5 7 16 17 21 20 18 17 15 24 25 30 30 30 34 36 32 30 27 26 25 20 20 19 18 17 16 15 13 16 15 15 14 13 12 11 11 11 12 12 13 14
7 8 8 4 4 2 2 3 4 17 21 18 17 17 16 15 20 24 28 30 32 33 35 30 29 28 29 27 23 23 20 19 19 17 16 14 15 14 14 13 11 11 11 11 12 12 13 13 14
1 13 6 6 7 3 3 5 6 13 18 20 15 17 15 15 16 22 29 31 30 36 36 33 31 28 29 26 21 21 24 21 17 17 17 14 16 14 13 12 11 13 12 12 13 13 14 14 15
10 9 4 8 6 3 4 5 13 13 19 22 16 16 15 15 16 26 25 32 31 33 30 32 31 30 25 27 22 20 22 19 18 19 17 16 16 14 12 11 13 12 13 12 11 14 14 13 16
11 6 11 4 5 6 7 8 16 11 10 17 14 15 17 18 19 24 25 29 34 34 35 35 34 34 28 26 24 25 25 20 19 19 20 18 16 16 17 11 12 12 12 12 12 13 14 16 18
12 12 5 5 4 6 3 5 9 14 17 22 19 16 17 18 20 21 20 25 31 32 36 36 37 35 34 30 28 26 23 22 21 20 23 22 19 16 17 14 13 13 13 13 13 15 17 19 19
5 15 7 10 4 5 7 2 5 5 4 8 10 11 11 17 22 19 22 25 28 32 34 35 37 37 37 35 30 26 25 23 21 25 25 24 20 20 16 15 13 13 14 14 14 14 18 19 18
9 8 9 13 7 6 2 4 3 7 7 12 12 14 16 17 18 15 25 26 31 35 36 37 37 36 36 37 35 34 30 24 25 26 28 26 23 21 19 18 15 15 15 15 15 16 16 17 20
7 9 9 6 5 6 1 4 5 8 7 11 14 16 16 18 18 19 23 31 32 31 37 37 38 36 35 36 37 35 34 34 28 29 27 25 23 20 19 19 17 17 16 15 15 16 18 18 19
7 10 8 5 4 1 5 5 4 9 18 6 12 15 16 17 17 18 24 27 29 30 32 34 37 37 38 39 38 38 37 37 32 31 29 27 26 24 24 22 19 18 17 17 16 16 17 19 18
9 16 3 2 1 5 2 2 7 5 11 13 16 15 15 16 16 16 15 24 27 29 33 37 41 40 41 38 40 39 40 40 38 35 34 32 29 28 28 26 23 21 20 18 18 17 18 19 20
6 7 8 10 6 4 3 6 7 8 6 8 14 18 15 16 16 16 19 26 29 33 35 36 36 37 42 41 39 38 39 41 40 39 38 36 35 32 30 29 27 24 22 20 20 19 18 18 19
2 2 6 8 1 4 2 4 5 4 6 6 6 6 10 13 14 17 21 28 30 33 36 38 36 36 38 38 35 39 41 42 40 38 39 39 38 36 33 32 30 27 26 23 22 21 20 19 19
3 3 3 3 6 4 2 4 2 7 11 12 5 6 6 5 5 6 9 20 24 29 32 33 33 33 35 35 35 40 43 45 44 40 38 40 39 37 36 36 35 31 29 26 25 23 22 21 21
0 1 4 5 4 5 4 5 1 5 9 7 10 12 11 10 10 9 12 10 4 16 26 32 31 30 33 36 39 41 44 45 45 42 39 40 39 39 38 38 38 35 33 30 28 27 25 24 23
1 4 4 4 4 2 3 4 3 5 8 9 11 12 12 12 11 11 15 18 21 14 6 7 22 36 38 39 40 41 41 41 42 43 42 40 41 40 39 38 40 39 37 35 33 31 30 29 28

GFSSGP_925_spd_333.txt.gz
Wind_Speed
7 12 12 3 4 4 3 5 2 3 3 3 2 3 9 5 4 4 8 11 24 24 22 21 20 18 17 20 22 23 22 23 23 23 21 21 21 22 22 24 24 24 25 24 23 24 25 25 24
13 14 4 2 5 4 5 4 6 3 5 6 5 4 7 3 3 8 10 24 27 24 24 23 21 20 21 23 23 23 23 21 19 20 22 20 20 21 22 23 24 26 26 24 24 24 24 23 22
15 10 3 4 4 8 5 6 9 3 5 3 4 5 3 5 7 11 16 30 28 26 24 24 23 23 23 23 24 24 24 25 24 21 18 20 21 22 22 23 24 26 25 24 23 24 22 21 22
13 2 3 3 6 5 5 7 6 9 3 5 5 8 4 2 9 11 30 30 29 26 25 25 27 27 26 24 25 24 23 25 26 23 15 18 19 21 22 23 24 25 25 22 22 24 23 23 22
7 3 3 2 6 5 4 2 8 9 5 5 2 5 3 2 15 30 28 30 30 27 26 27 26 26 24 23 20 20 17 23 25 24 19 17 20 20 21 22 24 24 24 22 21 22 22 21 20
3 3 4 5 5 6 3 4 7 4 3 6 6 6 2 21 28 27 29 29 29 30 28 26 24 25 23 22 22 23 24 26 28 26 22 20 20 21 20 21 23 23 22 22 23 23 21 20 20
6 5 6 7 6 5 6 3 7 8 8 4 8 5 5 11 26 31 30 29 28 29 26 25 23 23 24 24 26 25 26 26 26 24 22 20 21 20 19 21 21 21 21 24 23 22 19 19 19
4 4 6 8 7 7 7 5 7 8 3 5 4 7 11 13 30 32 31 29 28 29 29 28 27 27 25 24 24 25 25 26 25 24 22 21 20 20 20 20 20 21 22 23 20 18 18 18 19
4 4 7 10 10 7 6 5 2 1 9 1 1 4 19 25 34 30 26 23 25 28 29 29 29 27 26 25 23 23 23 23 23 21 20 20 20 19 18 19 20 20 20 21 19 18 18 18 18
5 5 10 6 8 7 5 9 11 6 5 4 7 15 28 31 31 26 24 21 22 29 28 29 28 29 29 28 26 22 20 20 20 19 20 20 20 19 19 18 18 18 18 17 16 17 18 17 17
8 10 5 6 8 8 8 4 4 18 4 7 21 24 23 27 25 25 25 26 27 31 29 27 28 28 27 24 21 18 17 22 20 18 19 20 20 19 19 18 17 16 14 14 13 14 16 15 14
9 3 6 5 8 6 9 10 5 17 6 12 26 30 22 22 23 26 25 24 29 31 28 28 27 26 22 20 19 18 22 20 17 18 18 19 19 18 18 17 16 12 12 13 13 11 13 14 13
5 6 2 2 8 3 9 7 8 1 5 18 19 20 21 18 22 24 26 27 30 31 29 28 26 23 21 21 18 21 21 17 17 16 17 16 17 18 16 15 13 10 10 11 12 12 12 14 14
8 7 1 3 5 6 7 4 6 2 13 19 22 19 18 20 25 25 26 27 30 32 30 28 25 22 22 20 19 20 17 15 16 15 16 15 14 13 12 11 10 10 11 11 11 12 13 15 14
8 6 3 1 2 4 8 4 6 7 16 20 18 15 15 16 24 25 29 30 33 34 32 30 26 24 22 20 21 19 16 15 14 16 15 13 13 11 11 11 11 11 11 12 12 13 14 15 14
6 6 5 4 4 3 4 5 2 8 22 19 16 14 13 16 22 24 26 29 33 35 33 30 28 26 23 23 21 19 17 15 16 16 13 12 14 13 13 12 12 11 11 11 11 13 14 13 13
2 15 6 3 2 4 4 3 8 8 15 19 14 15 13 12 15 21 26 29 31 36 36 33 29 27 26 24 21 20 18 17 17 14 16 14 15 14 13 12 10 10 10 11 11 12 13 14 14
16 13 4 7 5 6 5 3 13 10 15 20 15 14 14 14 15 24 26 28 30 33 35 33 30 27 28 25 21 22 21 19 19 16 15 15 15 12 11 11 10 11 12 12 12 12 13 13 14
9 13 14 1 3 7 6 9 15 11 8 14 12 12 12 15 16 24 28 31 31 29 33 34 29 28 27 28 24 23 22 22 19 18 17 16 16 14 12 12 12 12 12 12 12 14 15 16 18
8 15 4 5 4 7 3 7 13 16 19 18 22 14 14 8 13 18 26 27 28 30 32 32 31 30 26 28 27 22 22 22 18 17 19 18 17 16 16 14 12 13 13 14 15 17 18 18 21
4 19 6 9 5 7 7 4 3 7 4 8 9 6 8 13 13 14 21 25 26 29 34 34 33 31 31 25 27 22 22 21 21 22 22 21 20 18 17 17 12 12 14 15 16 17 19 20 21
7 7 9 10 6 6 3 4 4 4 7 11 12 10 13 12 12 12 16 22 27 30 34 35 34 34 36 33 32 31 26 22 25 25 24 24 23 21 18 18 16 13 15 16 16 16 18 20 24
6 6 8 4 5 6 3 4 5 5 8 13 15 13 13 14 15 16 20 23 24 27 30 33 34 33 35 35 34 32 30 29 26 25 25 26 26 24 22 20 19 17 17 17 17 19 19 21 21
8 9 8 6 4 1 4 4 4 6 13 7 12 14 15 13 14 14 20 22 23 27 33 33 34 35 36 37 36 36 33 32 28 25 26 28 28 27 25 22 19 19 19 19 18 18 19 21 22
7 15 3 3 2 3 3 3 7 4 9 14 18 17 17 16 15 14 14 22 24 29 32 35 37 38 38 38 39 37 33 33 33 32 30 29 29 29 29 25 23 23 20 20 19 19 20 20 22
2 5 6 6 5 5 3 6 5 4 5 2 9 15 14 15 15 17 20 25 28 32 35 37 36 33 35 38 38 36 36 35 35 37 36 35 34 33 30 29 27 26 23 22 21 21 20 20 21
4 2 3 8 2 3 3 5 4 7 9 12 9 2 5 10 13 16 20 25 26 28 32 34 31 31 32 36 37 36 35 38 37 37 39 39 38 37 34 31 30 30 28 25 24 23 22 21 20
5 6 4 2 6 5 3 4 4 4 7 10 13 12 12 11 10 8 3 9 18 23 27 32 35 36 42 41 40 40 41 41 41 39 40 40 40 37 37 35 33 32 32 29 27 26 24 23 22
3 1 4 5 4 5 4 6 1 1 4 6 8 10 10 11 10 10 13 16 10 11 17 22 26 31 37 40 41 42 42 45 43 43 42 41 39 37 37 37 37 36 35 33 32 30 28 26 25
2 2 4 5 4 1 3 5 3 5 5 5 7 9 10 10 10 10 15 17 20 17 11 6 13 18 20 26 31 38 40 39 38 40 43 42 41 39 37 37 38 39 40 38 36 35 33 31 30